Andrews Air Force Base Camp Springs US
ICAO: KADW
IATA: ADW
Category: Large
Scheduled Services: No

Elevation: 280 ft
TransAlt. 18000 ft.

Airport Communications:
POTOMAC APP:119.3
ATIS:113.1
CLNC DEL:127.55
POTOMAC DEP:125.65
GND:121.8
AFRC OPS:143.8
PMSV METRO:34.46
COMD POST:141.55
PTD:139.3
TWR:118.4

KADW Zoom In..

Runways:

(A) RW 01L length 9318 ft width 200 ft
ILS 111.50 / hdg 10

(B) RW 01R length 9756 ft width 150 ft
ILS 110.50 / hdg 10

(C) RW 19L length 9756 ft width 150 ft
ILS 110.50 / hdg 190

(D) RW 19R length 9318 ft width 200 ft
ILS 111.50 / hdg 190

Location; KADW
Day. 20 / Time. 09.56 Zulu
* Altimeter: 30.24
* Temperature: 03° c. 37.4°f.
* Wind from: 300° Speed 08 kn.
Dewpoint: -06° c.
Visibility: 10 Statute Miles.
Clouds: Clear (automated report).

KADW 200956Z AUTO 30008KT 10SM CLR 03/M06 A3024 RMK AO2 SLP249 T00311058 $


Wind From 300°
Speed 08 kn.

  YouTube Music Video
 
jpsmedia.com for Web Design  worldairports.se 2018   terms of use